Location: Caltech
(34.1382°N, 118.1253°W)
Time: 02:36:52
(UTC-07:00)

Aureole 3 Rocket - Visible Passes

Search period start: 22 June 2018 00:00
Search period end: 02 July 2018 00:00
Orbit: 398 x 1744 km, 82.5° (Epoch: 21 June)

Date Brightness Start Highest point End Pass type
(mag) Time Alt. Az. Time Alt. Az. Time Alt. Az.
22 Jun 6.3 00:57:28 14° W 00:59:54 16° WNW 01:03:44 10° NW visible
22 Jun 5.1 22:17:42 31° ESE 22:19:16 34° E 22:24:52 10° NNE visible
23 Jun 5.3 00:04:23 31° WSW 00:06:37 37° W 00:12:18 10° NNW visible
23 Jun 6.0 21:24:36 13° ESE 21:26:05 13° E 21:29:04 10° ENE visible
23 Jun 4.2 23:11:17 51° SSW 23:13:28 83° W 23:19:28 10° N visible
24 Jun 6.6 01:00:10 10° W 01:00:53 10° WNW 01:01:35 10° WNW visible
24 Jun 4.7 22:18:09 36° SE 22:20:12 43° E 22:25:47 10° NNE visible
25 Jun 5.7 00:04:50 22° WSW 00:07:31 27° W 00:12:29 10° NNW visible
25 Jun 5.7 21:25:00 16° ESE 21:26:56 17° E 21:30:47 10° NE visible
25 Jun 4.4 23:11:40 39° SSW 23:14:22 63° W 23:20:00 10° N visible
26 Jun 4.2 22:18:27 36° SSE 22:21:08 56° E 22:26:35 10° NNE visible
27 Jun 6.0 00:05:08 14° WSW 00:08:23 19° W 00:12:22 10° NW visible
27 Jun 5.3 21:25:13 18° ESE 21:27:48 22° E 21:32:06 10° NE visible
27 Jun 4.8 23:11:53 28° SW 23:15:13 46° W 23:20:25 10° N visible
28 Jun 3.9 22:18:36 32° S 22:22:02 73° E 22:27:17 10° NNE visible
29 Jun 6.4 00:06:45 10° WSW 00:09:15 12° WNW 00:11:31 10° NW visible
29 Jun 4.9 21:25:15 19° SE 21:28:40 28° E 21:33:10 10° NE visible
29 Jun 5.2 23:11:55 18° SW 23:16:01 32° W 23:20:40 10° NNW visible
30 Jun 3.8 22:18:30 24° S 22:22:52 84° W 22:27:52 10° N visible
01 Jul 4.4 21:25:01 16° SSE 21:29:32 36° E 21:34:05 10° NNE visible
01 Jul 5.7 23:11:52 10° SW 23:16:48 22° W 23:20:43 10° NNW visible
